Regional Weather Roundup
Issued by NWS

Home | Current Version | Previous Version | Text Only | Print | Product List | Glossary Off
Versions: 1 2 3 4 5 6 7 8 9 10 11 12 13 14 15 16 17 18 19 20 21 22 23 24 25 26 27 28 29 30 31 32 33 34 35 36 37 38 39 40 41 42 43 44 45 46 47 48 49 50

000
ASUS43 KOAX 270402
RWRNE

WEATHER ROUNDUP FOR NEBRASKA
NATIONAL WEATHER SERVICE OMAHA NE
1100 PM CDT TUE MAY 26 2015

NOTES: SATELLITE DATA IS BEING USED TO AUGMENT CLOUD COVER ABOVE
       12000 FEET.
       "FAIR" INDICATES FEW OR NO CLOUDS BELOW 12,000 FEET WITH NO
       SIGNIFICANT WEATHER AND/OR OBSTRUCTIONS TO VISIBILITY.

  * THESE STATIONS DO NOT REPORT WEATHER SUCH AS RAIN...SNOW OR FOG.

NEZ001>004-019>022-054>056-270500-
NEBRASKA PANHANDLE

CITY           SKY/WX    TMP DP  RH WIND       PRES   REMARKS
SCOTTSBLUFF    PTCLDY    59  52  77 E7        30.03R
ALLIANCE       MOCLDY    52  49  89 SE7       30.03R
CHADRON        CLOUDY    58  50  75 SE7       30.01R
SIDNEY         PTCLDY    53  50  89 SE6       30.06R
$$

NEZ057>060-069>072-079>082-270500-
SOUTHWEST NEBRASKA

CITY           SKY/WX    TMP DP  RH WIND       PRES   REMARKS
NORTH PLATTE   CLEAR     54  50  86 E5        30.04R
IMPERIAL       PTCLDY    54  49  83 SE7       30.04R
MCCOOK         CLEAR     56  48  74 NE5       30.03R
$$

NEZ005>010-023>029-035>040-094-270500-
NORTH CENTRAL NEBRASKA

CITY           SKY/WX    TMP DP  RH WIND       PRES   REMARKS
VALENTINE      CLEAR     56  50  80 W3        30.00R
BROKEN BOW     CLEAR     56  50  80 CALM      30.01R
ORD            CLEAR     54  48  80 CALM      29.97R
$$

NEZ041-046>049-061>064-073>077-083>087-270500-
SOUTH CENTRAL NEBRASKA

CITY           SKY/WX    TMP DP  RH WIND       PRES   REMARKS
GRAND ISLAND   CLEAR     56  48  74 W7        29.99R
HASTINGS       CLEAR     58  50  75 W3        30.00R
KEARNEY *      CLEAR     63  46  55 W3        30.01R
$$

NEZ011>018-030>034-042>045-270500-
NORTHEAST NEBRASKA

CITY           SKY/WX    TMP DP  RH WIND       PRES   REMARKS
NORFOLK        CLEAR     57  52  83 W7        29.94R
COLUMBUS *       N/A    N/A N/A N/A MISG        N/A
TEKAMAH        PTCLDY    58  55  90 NW3       29.91R
$$

NEZ050>053-065>068-078-088>093-270500-
SOUTHEAST NEBRASKA

CITY           SKY/WX    TMP DP  RH WIND       PRES   REMARKS
LINCOLN        CLEAR     63  54  72 SW6       29.95R
OMAHA EPPLEY   PTCLDY    58  56  93 N5        29.92R
FALLS CITY     CLEAR     62  57  83 SW7       29.93R
$$

NEZ044-045-051>053-067-270500-
OMAHA AREA

CITY           SKY/WX    TMP DP  RH WIND       PRES   REMARKS
OMAHA EPPLEY   PTCLDY    58  56  93 N5        29.92R
OFFUTT AFB     CLEAR     62  56  81 W5        29.91R
$$



USA.gov is the U.S. government's official web portal to all federal, state and local government web resources and services.